Date String (YYYY-MM-DD hh:mm:ss) UTC,Instrument flags,absolute air pressure of the measurement (hPa),sample flow rate (lpm),inlet stack bypass flow (lpm),air temperature of the measurement (°C),ambient temperature measured by the external sensor (°C),aerosol sample conditioner tube jacket temperature (°C),OPC LED temperature (°C),internal box temperature (°C),relative humidity of the measurement (%),span deviation,mass concentration of particles derived from Lorenz-Mie calculation of OPC scattering (μg/m³),mass concentration of particles derived from Lorenz-Mie calculation of OPC scattering (μg/m³),mass concentration of particles derived from Lorenz-Mie calculation of OPC scattering (μg/m³)
DateTimeUTC,F1_M11,P_M11,Q1_M11,Q2_M11,T1_M11,T2_M11,T3_M11,T4_M11,T5_M11,U1_M11,ZSPAN_M11,X2_M11,X0_M11,X1_M11
2024-01-26 04:00:00,SystemResetWarning,0827.5,5.01,000.00,023.7,022.5,000.0,032.1,025.0,14.1,0003.8,0007.27,0017.60,0006.48
2024-01-26 04:01:00,SystemResetWarning,0827.5,5.00,000.00,023.7,022.5,000.0,032.1,025.0,14.2,0003.8,0007.24,0017.38,0006.45
2024-01-26 04:02:00,SystemResetWarning,0827.8,4.99,000.00,023.7,022.5,000.0,032.1,025.0,14.2,0004.1,0007.19,0016.80,0006.42
2024-01-26 04:03:00,SystemResetWarning,0827.8,5.00,000.00,023.7,022.5,000.0,032.1,025.0,14.2,0004.1,0007.15,0017.12,0006.41
2024-01-26 04:04:00,SystemResetWarning,0827.8,4.99,000.00,023.7,022.5,000.0,032.1,025.0,14.2,0004.0,0007.12,0017.07,0006.39
2024-01-26 04:05:00,SystemResetWarning,0828.0,5.00,000.00,023.7,022.5,000.0,032.1,025.0,14.2,0003.7,0007.04,0015.85,0006.37
2024-01-26 04:06:00,SystemResetWarning,0827.6,5.01,000.00,023.7,022.5,000.0,032.1,025.0,14.3,0003.6,0006.99,0014.67,0006.37
2024-01-26 04:07:00,SystemResetWarning,0827.5,5.00,000.00,023.7,022.5,000.0,032.0,025.0,14.3,0003.6,0006.97,0014.45,0006.36
2024-01-26 04:08:00,SystemResetWarning,0827.5,5.00,000.00,023.7,022.5,000.0,032.0,025.0,14.3,0003.4,0006.96,0014.00,0006.36
2024-01-26 04:09:00,SystemResetWarning,0827.5,4.99,000.00,023.7,022.5,000.0,032.0,025.0,14.3,0003.3,0006.95,0013.45,0006.36
2024-01-26 04:10:00,SystemResetWarning,0827.5,5.00,000.00,023.7,022.5,000.0,032.0,025.0,14.3,0003.3,0006.91,0012.97,0006.36
2024-01-26 04:11:00,SystemResetWarning,0827.5,5.01,000.00,023.6,022.5,000.0,032.0,025.0,14.4,0003.5,0006.92,0012.69,0006.37
2024-01-26 04:12:00,SystemResetWarning,0827.6,5.00,000.00,023.6,022.5,000.0,032.0,025.0,14.4,0003.3,0006.94,0012.77,0006.40
2024-01-26 04:13:00,SystemResetWarning,0827.6,5.00,000.00,023.6,022.5,000.0,032.0,025.0,14.4,0003.0,0006.95,0013.45,0006.40
2024-01-26 04:14:00,SystemResetWarning,0827.7,5.00,000.00,023.6,022.4,000.0,032.0,025.0,14.4,0003.1,0007.00,0013.89,0006.39
2024-01-26 04:15:00,SystemResetWarning,0827.6,5.00,000.00,023.6,022.4,000.0,032.0,025.0,14.4,0003.3,0007.05,0013.82,0006.40
2024-01-26 04:16:00,SystemResetWarning,0827.7,5.00,000.00,023.6,022.4,000.0,032.0,025.0,14.4,0003.5,0007.10,0014.15,0006.41
2024-01-26 04:17:00,SystemResetWarning,0827.7,5.00,000.00,023.6,022.4,000.0,032.0,025.0,14.4,0003.5,0007.16,0014.76,0006.43
2024-01-26 04:18:00,SystemResetWarning,0827.7,5.00,000.00,023.6,022.4,000.0,032.0,025.0,14.4,0003.4,0007.22,0015.16,0006.46
2024-01-26 04:19:00,SystemResetWarning,0827.7,5.00,000.00,023.6,022.4,000.0,032.0,025.0,14.4,0003.6,0007.27,0016.03,0006.49
2024-01-26 04:20:00,SystemResetWarning,0827.7,5.00,000.00,023.6,022.4,000.0,032.0,024.9,14.4,0003.7,0007.30,0016.33,0006.49
2024-01-26 04:21:00,SystemResetWarning,0827.7,5.00,000.00,023.6,022.4,000.0,032.0,024.9,14.4,0003.8,0007.34,0016.40,0006.50
2024-01-26 04:22:00,SystemResetWarning,0827.7,5.00,000.00,023.6,022.4,000.0,031.9,025.0,14.4,0003.6,0007.37,0016.27,0006.54
2024-01-26 04:23:00,SystemResetWarning,0827.7,5.00,000.00,023.6,022.4,000.0,031.9,024.9,14.4,0003.4,0007.40,0016.43,0006.55
2024-01-26 04:24:00,SystemResetWarning,0827.6,5.00,000.00,023.6,022.4,000.0,031.9,024.9,14.4,0003.8,0007.44,0016.09,0006.60
2024-01-26 04:25:00,SystemResetWarning,0827.6,5.00,000.00,023.6,022.5,000.0,031.9,024.9,14.5,0003.7,0007.47,0015.64,0006.66
2024-01-26 04:26:00,SystemResetWarning,0827.6,5.00,000.00,023.5,022.5,000.0,031.9,024.9,14.5,0003.5,0007.51,0015.69,0006.70
2024-01-26 04:27:00,SystemResetWarning,0827.6,5.00,000.00,023.5,022.5,000.0,031.9,025.0,14.5,0003.3,0007.53,0015.63,0006.75
2024-01-26 04:28:00,SystemResetWarning,0827.7,5.00,000.00,023.5,022.5,000.0,031.9,024.9,14.5,0003.1,0007.56,0015.63,0006.78
2024-01-26 04:29:00,SystemResetWarning,0827.7,5.00,000.00,023.5,022.5,000.0,031.9,024.9,14.6,0002.9,0007.60,0015.32,0006.81
2024-01-26 04:30:00,SystemResetWarning,0827.6,5.01,000.00,023.5,022.6,000.0,031.9,024.9,14.6,0002.4,0007.61,0014.49,0006.83
2024-01-26 04:31:00,SystemResetWarning,0827.7,5.01,000.00,023.5,022.6,000.0,031.9,024.9,14.6,0002.1,0007.64,0014.60,0006.89
2024-01-26 04:32:00,SystemResetWarning,0827.7,5.00,000.00,023.5,022.6,000.0,031.9,024.9,14.7,0002.1,0007.71,0015.59,0006.94
2024-01-26 04:33:00,SystemResetWarning,0827.7,5.00,000.00,023.5,022.6,000.0,031.9,024.9,14.6,0002.2,0007.80,0016.02,0006.98
2024-01-26 04:34:00,SystemResetWarning,0827.7,4.99,000.00,023.5,022.6,000.0,031.9,024.9,14.6,0002.4,0007.80,0016.30,0007.00
2024-01-26 04:35:00,SystemResetWarning,0827.7,5.00,000.00,023.5,022.6,000.0,031.9,024.9,14.6,0002.0,0007.84,0016.70,0007.01
2024-01-26 04:36:00,SystemResetWarning,0827.7,5.00,000.00,023.5,022.6,000.0,031.9,024.9,14.6,0001.9,0007.85,0016.93,0006.99
2024-01-26 04:37:00,SystemResetWarning,0827.7,5.00,000.00,023.5,022.6,000.0,031.9,024.9,14.7,0001.7,0007.83,0016.95,0007.00
2024-01-26 04:38:00,SystemResetWarning,0827.7,5.01,000.00,023.5,022.6,000.0,031.9,024.9,14.7,0002.0,0007.84,0016.83,0006.99
2024-01-26 04:39:00,SystemResetWarning,0827.7,5.01,000.00,023.5,022.6,000.0,031.9,024.9,14.7,0002.0,0007.81,0016.34,0006.97
2024-01-26 04:40:00,SystemResetWarning,0827.7,5.00,000.00,023.5,022.6,000.0,031.9,024.9,14.7,0002.4,0007.77,0015.68,0006.97
2024-01-26 04:41:00,SystemResetWarning,0827.7,5.01,000.00,023.5,022.6,000.0,031.9,024.9,14.7,0002.3,0007.76,0015.74,0006.97
2024-01-26 04:42:00,SystemResetWarning,0827.7,5.00,000.00,023.5,022.6,000.0,031.9,024.9,14.7,0003.0,0007.75,0015.86,0006.96
2024-01-26 04:43:00,SystemResetWarning,0827.7,4.99,000.00,023.5,022.5,000.0,031.9,024.8,14.7,0002.9,0007.77,0015.35,0006.94
2024-01-26 04:44:00,SystemResetWarning,0827.7,4.99,000.00,023.5,022.5,000.0,031.9,024.8,14.8,0003.1,0007.76,0014.91,0006.93
2024-01-26 04:45:00,SystemResetWarning,0827.7,5.00,000.00,023.4,022.5,000.0,031.8,024.8,14.8,0003.3,0007.73,0014.76,0006.92
2024-01-26 04:46:00,SystemResetWarning,0827.7,5.00,000.00,023.4,022.5,000.0,031.8,024.8,14.9,0003.8,0007.72,0014.02,0006.92
2024-01-26 04:47:00,SystemResetWarning,0827.7,5.00,000.00,023.4,022.5,000.0,031.8,024.8,14.9,0003.9,0007.69,0013.81,0006.92
2024-01-26 04:48:00,SystemResetWarning,0827.7,5.00,000.00,023.4,022.5,000.0,031.8,024.8,14.9,0004.1,0007.70,0013.65,0006.93
2024-01-26 04:49:00,SystemResetWarning,0827.7,5.00,000.00,023.4,022.5,000.0,031.8,024.8,15.0,0004.3,0007.72,0013.71,0006.95
2024-01-26 04:50:00,SystemResetWarning,0827.7,5.00,000.00,023.4,022.5,000.0,031.8,024.8,15.0,0004.4,0007.73,0013.80,0006.99
2024-01-26 04:51:00,SystemResetWarning,0827.7,5.00,000.00,023.4,022.4,000.0,031.8,024.8,15.0,0004.3,0007.76,0014.02,0007.01
2024-01-26 04:52:00,SystemResetWarning,0827.7,5.00,000.00,023.4,022.4,000.0,031.8,024.7,15.0,0004.3,0007.78,0014.31,0007.02
2024-01-26 04:53:00,SystemResetWarning,0827.7,5.01,000.00,023.4,022.4,000.0,031.8,024.7,15.0,0004.1,0007.80,0014.35,0007.02
2024-01-26 04:54:00,SystemResetWarning,0827.7,5.01,000.00,023.4,022.4,000.0,031.8,024.7,15.0,0004.0,0007.81,0014.69,0007.06
2024-01-26 04:55:00,SystemResetWarning,0827.7,4.99,000.00,023.4,022.4,000.0,031.8,024.7,15.1,0004.1,0007.78,0014.56,0007.08
2024-01-26 04:56:00,SystemResetWarning,0827.7,4.99,000.00,023.4,022.4,000.0,031.8,024.7,15.2,0004.0,0007.83,0015.72,0007.12
2024-01-26 04:57:00,SystemResetWarning,0827.7,5.00,000.00,023.4,022.4,000.0,031.8,024.7,15.2,0003.8,0007.87,0015.50,0007.16
2024-01-26 04:58:00,SystemResetWarning,0827.8,5.00,000.00,023.3,022.4,000.0,031.8,024.7,15.3,0003.7,0007.90,0015.33,0007.21
2024-01-26 04:59:00,SystemResetWarning,0827.8,5.00,000.00,023.3,022.4,000.0,031.7,024.7,15.3,0003.9,0007.93,0015.12,0007.23
